Time,TemperatureF,DewpointF,PressureIn,WindDirection,WindDirectionDegrees,WindSpeedMPH,WindSpeedGustMPH,Humidity,HourlyPrecipIn,Conditions,Clouds,dailyrainin,SoftwareType,DateUTC
2013-04-08 00:03:00,39.7,33.8,28.77,NE,44,3.0,3.0,31,-99.99,,,-99.99,meteohub,2013-04-08 05:03:00,
2013-04-08 00:08:00,39.7,33.8,28.74,North,0,0.0,4.0,31,-99.99,,,-99.99,meteohub,2013-04-08 05:08:00,
2013-04-08 00:13:00,39.7,34.7,28.74,NNW,337,0.0,4.0,32,-99.99,,,-99.99,meteohub,2013-04-08 05:13:00,
2013-04-08 00:18:00,39.7,34.9,28.74,NNW,337,0.0,3.0,32,-99.99,,,-99.99,meteohub,2013-04-08 05:18:00,
2013-04-08 00:24:00,39.7,34.9,28.77,NNW,338,0.0,3.0,32,-99.99,,,-99.99,meteohub,2013-04-08 05:24:00,
2013-04-08 00:29:00,39.6,34.9,28.77,North,8,0.0,0.0,32,-99.99,,,-99.99,meteohub,2013-04-08 05:29:00,
2013-04-08 00:35:00,39.4,34.9,28.77,North,8,0.0,0.0,32,-99.99,,,-99.99,meteohub,2013-04-08 05:35:00,
2013-04-08 00:40:00,39.4,35.1,28.77,NE,43,0.0,0.0,32,-99.99,,,-99.99,meteohub,2013-04-08 05:40:00,
2013-04-08 00:45:00,39.2,35.1,28.77,ENE,57,2.0,0.0,32,-99.99,,,-99.99,meteohub,2013-04-08 05:45:00,
2013-04-08 00:51:00,39.2,35.1,28.77,East,92,3.0,4.0,32,-99.99,,,-99.99,meteohub,2013-04-08 05:51:00,
2013-04-08 00:57:00,39.2,35.1,28.77,NW,314,0.0,4.0,32,-99.99,,,-99.99,meteohub,2013-04-08 05:57:00,
2013-04-08 01:02:00,39.2,35.8,28.77,NE,52,0.0,4.0,33,-99.99,,,-99.99,meteohub,2013-04-08 06:02:00,
2013-04-08 01:07:00,39.2,35.8,28.74,NE,55,0.0,4.0,33,-99.99,,,-99.99,meteohub,2013-04-08 06:07:00,
2013-04-08 01:12:00,39.2,36.0,28.74,NE,43,0.0,4.0,33,-99.99,,,-99.99,meteohub,2013-04-08 06:12:00,
2013-04-08 01:17:00,39.2,36.0,28.74,NE,36,0.0,4.0,33,-99.99,,,-99.99,meteohub,2013-04-08 06:17:00,
2013-04-08 01:22:00,39.2,36.0,28.74,North,7,0.0,4.0,33,-99.99,,,-99.99,meteohub,2013-04-08 06:22:00,
2013-04-08 01:27:00,39.2,36.0,28.74,North,0,0.0,4.0,33,-99.99,,,-99.99,meteohub,2013-04-08 06:27:00,
2013-04-08 01:32:00,39.2,36.0,28.74,NNE,22,0.0,4.0,33,-99.99,,,-99.99,meteohub,2013-04-08 06:32:00,
2013-04-08 01:38:00,39.2,36.0,28.74,North,11,0.0,3.0,33,-99.99,,,-99.99,meteohub,2013-04-08 06:38:00,
2013-04-08 01:43:00,39.0,36.1,28.74,NNE,23,0.0,3.0,33,-99.99,,,-99.99,meteohub,2013-04-08 06:43:00,
2013-04-08 01:48:00,39.0,36.1,28.74,NNE,23,2.0,4.0,33,-99.99,,,-99.99,meteohub,2013-04-08 06:48:00,
2013-04-08 01:53:00,39.0,36.1,28.74,ENE,64,3.0,4.0,33,-99.99,,,-99.99,meteohub,2013-04-08 06:53:00,
2013-04-08 01:58:00,39.0,36.1,28.74,ENE,59,2.0,5.0,33,-99.99,,,-99.99,meteohub,2013-04-08 06:58:00,
2013-04-08 02:04:00,39.0,36.1,28.74,ENE,70,3.0,6.0,33,-99.99,,,-99.99,meteohub,2013-04-08 07:04:00,
2013-04-08 02:09:00,39.0,36.1,28.74,ENE,62,0.0,6.0,33,-99.99,,,-99.99,meteohub,2013-04-08 07:09:00,
2013-04-08 02:14:00,39.0,36.1,28.74,NE,49,4.0,6.0,33,-99.99,,,-99.99,meteohub,2013-04-08 07:14:00,
2013-04-08 02:19:00,39.0,36.1,28.74,NE,37,0.0,5.0,33,-99.99,,,-99.99,meteohub,2013-04-08 07:19:00,
2013-04-08 02:24:00,39.0,36.1,28.74,ENE,61,6.0,6.0,33,-99.99,,,-99.99,meteohub,2013-04-08 07:24:00,
2013-04-08 02:29:00,39.0,36.3,28.74,ENE,60,2.0,6.0,33,-99.99,,,-99.99,meteohub,2013-04-08 07:29:00,
2013-04-08 02:34:00,39.0,36.3,28.74,ENE,74,0.0,6.0,33,-99.99,,,-99.99,meteohub,2013-04-08 07:34:00,
2013-04-08 02:39:00,39.0,36.3,28.71,ENE,65,0.0,6.0,33,-99.99,,,-99.99,meteohub,2013-04-08 07:39:00,
2013-04-08 02:47:00,39.0,36.3,28.71,East,79,0.0,4.0,33,-99.99,,,-99.99,meteohub,2013-04-08 07:47:00,
2013-04-08 02:52:00,39.2,36.3,28.71,East,82,2.0,4.0,33,-99.99,,,-99.99,meteohub,2013-04-08 07:52:00,
2013-04-08 02:57:00,39.2,36.3,28.71,East,90,4.0,4.0,33,-99.99,,,-99.99,meteohub,2013-04-08 07:57:00,
2013-04-08 03:02:00,39.2,36.3,28.71,ENE,76,3.0,6.0,33,-99.99,,,-99.99,meteohub,2013-04-08 08:02:00,
2013-04-08 03:08:00,39.4,36.3,28.71,ENE,73,3.0,6.0,33,-99.99,,,-99.99,meteohub,2013-04-08 08:08:00,
2013-04-08 03:13:00,39.4,36.3,28.71,East,84,3.0,6.0,33,-99.99,,,-99.99,meteohub,2013-04-08 08:13:00,
2013-04-08 03:18:00,39.4,36.3,28.71,East,81,3.0,5.0,33,-99.99,,,-99.99,meteohub,2013-04-08 08:18:00,
2013-04-08 03:23:00,39.4,36.3,28.71,ENE,72,4.0,4.0,33,-99.99,,,-99.99,meteohub,2013-04-08 08:23:00,
2013-04-08 03:29:00,39.4,36.3,28.71,NE,49,3.0,4.0,33,-99.99,,,-99.99,meteohub,2013-04-08 08:29:00,
2013-04-08 03:34:00,39.4,36.3,28.71,ENE,69,4.0,5.0,33,-99.99,,,-99.99,meteohub,2013-04-08 08:34:00,
2013-04-08 03:39:00,39.4,36.3,28.71,East,84,2.0,5.0,33,-99.99,,,-99.99,meteohub,2013-04-08 08:39:00,
2013-04-08 03:44:00,39.4,36.3,28.71,ENE,64,5.0,6.0,33,-99.99,,,-99.99,meteohub,2013-04-08 08:44:00,
2013-04-08 03:49:00,39.4,36.3,28.71,East,90,2.0,6.0,33,-99.99,,,-99.99,meteohub,2013-04-08 08:49:00,
2013-04-08 03:54:00,39.4,36.3,28.69,East,92,3.0,6.0,33,-99.99,,,-99.99,meteohub,2013-04-08 08:54:00,
2013-04-08 03:59:00,39.4,36.5,28.69,ENE,75,3.0,6.0,33,-99.99,,,-99.99,meteohub,2013-04-08 08:59:00,
2013-04-08 04:04:00,39.4,36.3,28.71,ENE,68,4.0,5.0,33,-99.99,,,-99.99,meteohub,2013-04-08 09:04:00,
2013-04-08 04:10:00,39.6,36.3,28.71,ESE,123,0.0,5.0,33,-99.99,,,-99.99,meteohub,2013-04-08 09:10:00,
2013-04-08 04:15:00,39.7,36.3,28.71,ENE,73,3.0,5.0,33,-99.99,,,-99.99,meteohub,2013-04-08 09:15:00,
2013-04-08 04:20:00,39.7,36.5,28.71,East,101,3.0,5.0,33,-99.99,,,-99.99,meteohub,2013-04-08 09:20:00,
2013-04-08 04:25:00,39.7,36.5,28.71,East,84,5.0,5.0,33,-99.99,,,-99.99,meteohub,2013-04-08 09:25:00,
2013-04-08 04:30:00,39.7,36.5,28.71,ENE,65,3.0,5.0,33,-99.99,,,-99.99,meteohub,2013-04-08 09:30:00,
2013-04-08 04:35:00,39.9,36.3,28.71,ENE,59,0.0,5.0,33,-99.99,,,-99.99,meteohub,2013-04-08 09:35:00,
2013-04-08 04:40:00,39.9,36.3,28.71,ENE,65,3.0,5.0,33,-99.99,,,-99.99,meteohub,2013-04-08 09:40:00,
2013-04-08 04:46:00,39.9,36.3,28.71,NE,43,3.0,4.0,33,-99.99,,,-99.99,meteohub,2013-04-08 09:46:00,
2013-04-08 04:51:00,39.9,36.3,28.71,North,353,0.0,4.0,33,-99.99,,,-99.99,meteohub,2013-04-08 09:51:00,
2013-04-08 04:57:00,39.9,36.3,28.71,ENE,57,2.0,4.0,33,-99.99,,,-99.99,meteohub,2013-04-08 09:57:00,
2013-04-08 05:02:00,39.9,36.3,28.71,ENE,78,0.0,4.0,33,-99.99,,,-99.99,meteohub,2013-04-08 10:02:00,
2013-04-08 05:07:00,39.9,36.3,28.69,NE,38,3.0,4.0,33,-99.99,,,-99.99,meteohub,2013-04-08 10:07:00,
2013-04-08 05:12:00,39.9,36.3,28.69,ENE,63,4.0,4.0,33,-99.99,,,-99.99,meteohub,2013-04-08 10:12:00,
2013-04-08 05:17:00,39.9,36.3,28.69,ENE,64,3.0,4.0,33,-99.99,,,-99.99,meteohub,2013-04-08 10:17:00,
2013-04-08 05:22:00,39.9,36.3,28.69,East,83,4.0,4.0,33,-99.99,,,-99.99,meteohub,2013-04-08 10:22:00,
2013-04-08 05:27:00,39.9,36.5,28.69,ENE,70,0.0,4.0,33,-99.99,,,-99.99,meteohub,2013-04-08 10:27:00,
2013-04-08 05:32:00,39.9,36.5,28.69,ENE,74,3.0,8.0,33,-99.99,,,-99.99,meteohub,2013-04-08 10:32:00,
2013-04-08 05:37:00,39.9,36.3,28.69,ENE,70,2.0,8.0,33,-99.99,,,-99.99,meteohub,2013-04-08 10:37:00,
2013-04-08 05:42:00,39.9,36.3,28.69,East,84,4.0,8.0,33,-99.99,,,-99.99,meteohub,2013-04-08 10:42:00,
2013-04-08 05:47:00,39.9,36.3,28.69,ENE,67,3.0,8.0,33,-99.99,,,-99.99,meteohub,2013-04-08 10:47:00,
2013-04-08 05:52:00,39.7,36.5,28.69,ENE,66,3.0,6.0,33,-99.99,,,-99.99,meteohub,2013-04-08 10:52:00,
2013-04-08 05:57:00,39.7,35.8,28.69,ENE,62,3.0,6.0,32,-99.99,,,-99.99,meteohub,2013-04-08 10:57:00,
2013-04-08 06:02:00,39.7,35.8,28.69,NE,50,3.0,5.0,32,-99.99,,,-99.99,meteohub,2013-04-08 11:02:00,
2013-04-08 06:07:00,39.6,35.8,28.69,NE,39,3.0,5.0,32,-99.99,,,-99.99,meteohub,2013-04-08 11:07:00,
2013-04-08 06:13:00,39.6,35.8,28.69,NE,36,3.0,5.0,32,-99.99,,,-99.99,meteohub,2013-04-08 11:13:00,
2013-04-08 06:18:00,39.6,35.8,28.69,North,357,3.0,4.0,32,-99.99,,,-99.99,meteohub,2013-04-08 11:18:00,
2013-04-08 06:23:00,39.4,35.8,28.69,East,95,3.0,4.0,32,-99.99,,,-99.99,meteohub,2013-04-08 11:23:00,
2013-04-08 06:28:00,39.4,35.8,28.69,ENE,64,3.0,4.0,32,-99.99,,,-99.99,meteohub,2013-04-08 11:28:00,
2013-04-08 06:34:00,39.4,35.8,28.69,NNE,18,3.0,5.0,32,-99.99,,,-99.99,meteohub,2013-04-08 11:34:00,
2013-04-08 06:39:00,39.4,35.8,28.69,NNE,31,2.0,5.0,32,-99.99,,,-99.99,meteohub,2013-04-08 11:39:00,
2013-04-08 06:44:00,39.4,35.1,28.69,ENE,59,5.0,5.0,31,-99.99,,,-99.99,meteohub,2013-04-08 11:44:00,
2013-04-08 06:50:00,39.2,34.9,28.69,ENE,64,3.0,5.0,31,-99.99,,,-99.99,meteohub,2013-04-08 11:50:00,
2013-04-08 06:55:00,39.2,34.9,28.69,NE,40,4.0,6.0,31,-99.99,,,-99.99,meteohub,2013-04-08 11:55:00,
2013-04-08 07:00:00,39.0,34.9,28.69,NE,48,3.0,6.0,31,-99.99,,,-99.99,meteohub,2013-04-08 12:00:00,
2013-04-08 07:05:00,39.0,34.9,28.71,NE,49,4.0,6.0,31,-99.99,,,-99.99,meteohub,2013-04-08 12:05:00,
2013-04-08 07:11:00,39.0,34.7,28.71,NE,56,3.0,6.0,31,-99.99,,,-99.99,meteohub,2013-04-08 12:11:00,
2013-04-08 07:16:00,39.0,34.7,28.71,NE,50,5.0,6.0,31,-99.99,,,-99.99,meteohub,2013-04-08 12:16:00,
2013-04-08 07:22:00,39.0,34.7,28.71,ENE,59,3.0,6.0,31,-99.99,,,-99.99,meteohub,2013-04-08 12:22:00,
2013-04-08 07:27:00,39.2,34.7,28.71,NE,56,4.0,6.0,31,-99.99,,,-99.99,meteohub,2013-04-08 12:27:00,
2013-04-08 07:32:00,39.2,34.7,28.71,NE,42,3.0,5.0,31,-99.99,,,-99.99,meteohub,2013-04-08 12:32:00,
2013-04-08 07:38:00,39.2,34.5,28.71,East,83,3.0,5.0,31,-99.99,,,-99.99,meteohub,2013-04-08 12:38:00,
2013-04-08 07:43:00,39.2,34.7,28.71,NE,37,3.0,5.0,31,-99.99,,,-99.99,meteohub,2013-04-08 12:43:00,
2013-04-08 07:48:00,39.2,34.5,28.71,NE,48,4.0,4.0,31,-99.99,,,-99.99,meteohub,2013-04-08 12:48:00,
2013-04-08 07:53:00,39.2,34.5,28.71,NNE,29,0.0,5.0,31,-99.99,,,-99.99,meteohub,2013-04-08 12:53:00,
2013-04-08 07:59:00,39.2,34.5,28.71,NNE,13,0.0,6.0,31,-99.99,,,-99.99,meteohub,2013-04-08 12:59:00,
2013-04-08 08:04:00,39.2,34.5,28.71,NNE,24,0.0,6.0,31,-99.99,,,-99.99,meteohub,2013-04-08 13:04:00,
2013-04-08 08:10:00,39.2,34.3,28.71,NNE,22,0.0,6.0,31,-99.99,,,-99.99,meteohub,2013-04-08 13:10:00,
2013-04-08 08:15:00,39.2,34.3,28.71,NE,42,0.0,5.0,31,-99.99,,,-99.99,meteohub,2013-04-08 13:15:00,
2013-04-08 08:21:00,39.4,34.3,28.74,ENE,58,6.0,6.0,31,-99.99,,,-99.99,meteohub,2013-04-08 13:21:00,
2013-04-08 08:26:00,39.4,34.3,28.74,ENE,63,0.0,4.0,31,-99.99,,,-99.99,meteohub,2013-04-08 13:26:00,
2013-04-08 08:31:00,39.6,34.3,28.74,North,3,2.0,6.0,31,-99.99,,,-99.99,meteohub,2013-04-08 13:31:00,
2013-04-08 08:36:00,39.6,34.3,28.74,North,6,0.0,6.0,31,-99.99,,,-99.99,meteohub,2013-04-08 13:36:00,
2013-04-08 08:41:00,39.6,34.2,28.74,North,1,0.0,4.0,31,-99.99,,,-99.99,meteohub,2013-04-08 13:41:00,
2013-04-08 08:47:00,39.6,34.3,28.74,North,1,0.0,3.0,31,-99.99,,,-99.99,meteohub,2013-04-08 13:47:00,
2013-04-08 08:52:00,39.7,34.2,28.74,NE,35,3.0,3.0,31,-99.99,,,-99.99,meteohub,2013-04-08 13:52:00,
2013-04-08 08:57:00,39.7,33.4,28.74,NE,34,3.0,3.0,30,-99.99,,,-99.99,meteohub,2013-04-08 13:57:00,
2013-04-08 09:02:00,39.9,33.4,28.74,NNE,24,2.0,4.0,30,-99.99,,,-99.99,meteohub,2013-04-08 14:02:00,
2013-04-08 09:07:00,39.9,33.4,28.74,NNE,27,3.0,5.0,30,-99.99,,,-99.99,meteohub,2013-04-08 14:07:00,
2013-04-08 09:12:00,39.9,33.4,28.74,NE,47,3.0,5.0,30,-99.99,,,-99.99,meteohub,2013-04-08 14:12:00,
2013-04-08 09:18:00,40.1,33.3,28.74,NNE,23,2.0,6.0,30,-99.99,,,-99.99,meteohub,2013-04-08 14:18:00,
2013-04-08 09:23:00,39.9,33.3,28.74,NE,39,4.0,6.0,30,-99.99,,,-99.99,meteohub,2013-04-08 14:23:00,
2013-04-08 09:28:00,39.9,33.3,28.74,NE,42,3.0,4.0,30,-99.99,,,-99.99,meteohub,2013-04-08 14:28:00,
2013-04-08 09:33:00,39.9,33.3,28.74,NE,39,0.0,4.0,30,-99.99,,,-99.99,meteohub,2013-04-08 14:33:00,
2013-04-08 09:38:00,39.9,33.3,28.74,NE,44,4.0,4.0,30,-99.99,,,-99.99,meteohub,2013-04-08 14:38:00,
2013-04-08 09:44:00,40.1,33.3,28.74,NNE,32,4.0,4.0,30,-99.99,,,-99.99,meteohub,2013-04-08 14:44:00,
2013-04-08 09:49:00,40.1,33.3,28.74,NE,39,4.0,5.0,30,-99.99,,,-99.99,meteohub,2013-04-08 14:49:00,
2013-04-08 09:54:00,39.9,33.3,28.74,NNE,14,3.0,6.0,30,-99.99,,,-99.99,meteohub,2013-04-08 14:54:00,
2013-04-08 10:00:00,39.9,33.1,28.74,NNE,28,5.0,6.0,30,-99.99,,,-99.99,meteohub,2013-04-08 15:00:00,
2013-04-08 10:05:00,39.7,33.1,28.74,NE,41,3.0,6.0,30,-99.99,,,-99.99,meteohub,2013-04-08 15:05:00,
2013-04-08 10:10:00,39.7,33.1,28.74,NNE,30,4.0,6.0,30,-99.99,,,-99.99,meteohub,2013-04-08 15:10:00,
2013-04-08 10:15:00,39.7,33.1,28.74,North,353,3.0,6.0,30,-99.99,,,-99.99,meteohub,2013-04-08 15:15:00,
2013-04-08 10:20:00,39.7,33.1,28.74,NE,35,3.0,8.0,30,-99.99,,,-99.99,meteohub,2013-04-08 15:20:00,
2013-04-08 10:25:00,39.7,33.1,28.74,NE,45,0.0,8.0,30,-99.99,,,-99.99,meteohub,2013-04-08 15:25:00,
2013-04-08 10:30:00,39.9,33.1,28.74,NE,51,5.0,8.0,30,-99.99,,,-99.99,meteohub,2013-04-08 15:30:00,
2013-04-08 10:37:00,39.9,33.1,28.74,NNE,30,3.0,5.0,30,-99.99,,,-99.99,meteohub,2013-04-08 15:37:00,
2013-04-08 10:42:00,39.9,32.9,28.74,NE,51,4.0,8.0,30,-99.99,,,-99.99,meteohub,2013-04-08 15:42:00,
2013-04-08 10:47:00,39.9,32.9,28.74,NNW,342,4.0,8.0,30,-99.99,,,-99.99,meteohub,2013-04-08 15:47:00,
2013-04-08 10:52:00,40.1,32.9,28.77,NNE,21,4.0,5.0,30,-99.99,,,-99.99,meteohub,2013-04-08 15:52:00,
2013-04-08 10:57:00,40.3,32.9,28.77,NE,53,0.0,5.0,30,-99.99,,,-99.99,meteohub,2013-04-08 15:57:00,
2013-04-08 11:02:00,40.5,32.9,28.77,ENE,66,3.0,5.0,30,-99.99,,,-99.99,meteohub,2013-04-08 16:02:00,
2013-04-08 11:07:00,40.6,32.9,28.77,NE,51,4.0,5.0,30,-99.99,,,-99.99,meteohub,2013-04-08 16:07:00,
2013-04-08 11:13:00,40.6,32.9,28.77,NNE,15,3.0,5.0,30,-99.99,,,-99.99,meteohub,2013-04-08 16:13:00,
2013-04-08 11:18:00,41.0,32.9,28.77,East,84,6.0,6.0,30,-99.99,,,-99.99,meteohub,2013-04-08 16:18:00,
2013-04-08 11:23:00,41.2,32.9,28.77,NNE,28,3.0,6.0,30,-99.99,,,-99.99,meteohub,2013-04-08 16:23:00,
2013-04-08 11:28:00,41.2,32.9,28.77,NE,50,3.0,6.0,30,-99.99,,,-99.99,meteohub,2013-04-08 16:28:00,
2013-04-08 11:33:00,41.4,32.9,28.77,North,3,4.0,6.0,30,-99.99,,,-99.99,meteohub,2013-04-08 16:33:00,
2013-04-08 11:38:00,41.2,32.9,28.77,NNE,18,0.0,5.0,30,-99.99,,,-99.99,meteohub,2013-04-08 16:38:00,
2013-04-08 11:44:00,41.2,32.9,28.77,NNE,29,2.0,4.0,30,-99.99,,,-99.99,meteohub,2013-04-08 16:44:00,
2013-04-08 11:49:00,41.2,32.7,28.77,NNE,27,4.0,5.0,30,-99.99,,,-99.99,meteohub,2013-04-08 16:49:00,
2013-04-08 11:54:00,41.5,32.7,28.77,NNE,28,4.0,5.0,30,-99.99,,,-99.99,meteohub,2013-04-08 16:54:00,
2013-04-08 11:59:00,41.5,32.7,28.77,North,9,3.0,6.0,30,-99.99,,,-99.99,meteohub,2013-04-08 16:59:00,
2013-04-08 12:04:00,41.5,32.7,28.77,NE,53,4.0,6.0,30,-99.99,,,-99.99,meteohub,2013-04-08 17:04:00,
2013-04-08 12:09:00,41.7,32.7,28.77,North,2,5.0,6.0,30,-99.99,,,-99.99,meteohub,2013-04-08 17:09:00,
2013-04-08 12:14:00,42.1,32.7,28.77,ENE,67,5.0,6.0,30,-99.99,,,-99.99,meteohub,2013-04-08 17:14:00,
2013-04-08 12:20:00,41.9,32.7,28.77,ENE,73,4.0,6.0,30,-99.99,,,-99.99,meteohub,2013-04-08 17:20:00,
2013-04-08 12:25:00,42.1,32.7,28.77,NE,43,5.0,8.0,30,-99.99,,,-99.99,meteohub,2013-04-08 17:25:00,
2013-04-08 12:30:00,42.1,32.7,28.77,NNE,18,4.0,8.0,30,-99.99,,,-99.99,meteohub,2013-04-08 17:30:00,
2013-04-08 12:35:00,42.3,32.7,28.77,North,9,3.0,6.0,30,-99.99,,,-99.99,meteohub,2013-04-08 17:35:00,
2013-04-08 12:41:00,42.4,32.7,28.77,ENE,73,3.0,5.0,30,-99.99,,,-99.99,meteohub,2013-04-08 17:41:00,
2013-04-08 12:46:00,42.4,32.7,28.77,ENE,67,3.0,6.0,30,-99.99,,,-99.99,meteohub,2013-04-08 17:46:00,
2013-04-08 12:51:00,42.3,32.7,28.80,NE,42,5.0,6.0,30,-99.99,,,-99.99,meteohub,2013-04-08 17:51:00,
2013-04-08 12:56:00,42.3,32.7,28.80,North,10,5.0,6.0,30,-99.99,,,-99.99,meteohub,2013-04-08 17:56:00,
2013-04-08 13:01:00,42.4,32.7,28.80,NNE,24,4.0,6.0,30,-99.99,,,-99.99,meteohub,2013-04-08 18:01:00,
2013-04-08 13:07:00,42.6,32.7,28.80,East,84,3.0,6.0,30,-99.99,,,-99.99,meteohub,2013-04-08 18:07:00,
2013-04-08 13:12:00,42.4,32.7,28.80,NNE,17,3.0,5.0,30,-99.99,,,-99.99,meteohub,2013-04-08 18:12:00,
2013-04-08 13:17:00,42.4,32.7,28.80,NNE,28,5.0,5.0,30,-99.99,,,-99.99,meteohub,2013-04-08 18:17:00,
2013-04-08 13:22:00,42.8,32.7,28.80,NNE,16,3.0,6.0,30,-99.99,,,-99.99,meteohub,2013-04-08 18:22:00,
2013-04-08 13:27:00,42.8,32.7,28.80,NNE,28,4.0,6.0,30,-99.99,,,-99.99,meteohub,2013-04-08 18:27:00,
2013-04-08 13:32:00,43.0,32.7,28.80,ENE,76,2.0,7.0,30,-99.99,,,-99.99,meteohub,2013-04-08 18:32:00,
2013-04-08 13:37:00,43.2,32.7,28.80,NW,315,3.0,7.0,30,-99.99,,,-99.99,meteohub,2013-04-08 18:37:00,
2013-04-08 13:43:00,43.3,32.5,28.80,NNW,333,3.0,5.0,30,-99.99,,,-99.99,meteohub,2013-04-08 18:43:00,
2013-04-08 13:48:00,43.2,32.7,28.80,North,353,6.0,8.0,30,-99.99,,,-99.99,meteohub,2013-04-08 18:48:00,
2013-04-08 13:53:00,43.2,32.7,28.80,NNE,16,0.0,8.0,30,-99.99,,,-99.99,meteohub,2013-04-08 18:53:00,
2013-04-08 13:59:00,43.3,32.7,28.80,North,4,0.0,8.0,30,-99.99,,,-99.99,meteohub,2013-04-08 18:59:00,
2013-04-08 14:04:00,43.3,32.7,28.80,North,0,3.0,6.0,30,-99.99,,,-99.99,meteohub,2013-04-08 19:04:00,
2013-04-08 14:09:00,43.3,32.5,28.80,NW,324,3.0,5.0,30,-99.99,,,-99.99,meteohub,2013-04-08 19:09:00,
2013-04-08 14:15:00,43.5,32.5,28.80,North,11,3.0,5.0,30,-99.99,,,-99.99,meteohub,2013-04-08 19:15:00,
2013-04-08 14:21:00,43.5,32.7,28.83,NNE,27,3.0,5.0,30,-99.99,,,-99.99,meteohub,2013-04-08 19:21:00,
2013-04-08 14:26:00,43.3,32.7,28.83,NE,34,3.0,5.0,30,-99.99,,,-99.99,meteohub,2013-04-08 19:26:00,
2013-04-08 14:32:00,43.3,32.5,28.83,NE,38,3.0,5.0,30,-99.99,,,-99.99,meteohub,2013-04-08 19:32:00,
2013-04-08 14:37:00,43.3,32.5,28.83,NNW,329,3.0,5.0,30,-99.99,,,-99.99,meteohub,2013-04-08 19:37:00,
2013-04-08 14:42:00,43.5,32.5,28.83,North,357,3.0,5.0,30,-99.99,,,-99.99,meteohub,2013-04-08 19:42:00,
2013-04-08 14:47:00,43.7,32.5,28.83,NE,43,0.0,5.0,30,-99.99,,,-99.99,meteohub,2013-04-08 19:47:00,
2013-04-08 14:53:00,43.9,32.5,28.83,NNE,19,4.0,4.0,30,-99.99,,,-99.99,meteohub,2013-04-08 19:53:00,
2013-04-08 14:58:00,43.9,32.5,28.83,NE,34,4.0,6.0,30,-99.99,,,-99.99,meteohub,2013-04-08 19:58:00,
2013-04-08 15:03:00,43.9,32.5,28.83,NE,35,4.0,6.0,30,-99.99,,,-99.99,meteohub,2013-04-08 20:03:00,
2013-04-08 15:09:00,44.1,32.7,28.83,NW,313,0.0,6.0,30,-99.99,,,-99.99,meteohub,2013-04-08 20:09:00,
2013-04-08 15:14:00,44.2,32.5,28.83,NNE,21,3.0,4.0,30,-99.99,,,-99.99,meteohub,2013-04-08 20:14:00,
2013-04-08 15:19:00,44.2,32.5,28.83,NNW,341,4.0,6.0,30,-99.99,,,-99.99,meteohub,2013-04-08 20:19:00,
2013-04-08 15:26:00,44.2,32.5,28.83,NNW,346,4.0,6.0,30,-99.99,,,-99.99,meteohub,2013-04-08 20:26:00,
2013-04-08 15:32:00,44.6,32.5,28.83,NE,38,0.0,9.0,30,-99.99,,,-99.99,meteohub,2013-04-08 20:32:00,
2013-04-08 15:37:00,44.8,32.5,28.80,NNW,328,0.0,9.0,30,-99.99,,,-99.99,meteohub,2013-04-08 20:37:00,
2013-04-08 15:42:00,44.8,32.5,28.80,NNW,340,4.0,9.0,30,-99.99,,,-99.99,meteohub,2013-04-08 20:42:00,
2013-04-08 15:48:00,44.6,32.5,28.80,North,0,4.0,9.0,30,-99.99,,,-99.99,meteohub,2013-04-08 20:48:00,
2013-04-08 15:53:00,44.4,32.5,28.83,NE,55,3.0,9.0,30,-99.99,,,-99.99,meteohub,2013-04-08 20:53:00,
2013-04-08 15:58:00,44.4,32.5,28.83,NE,44,2.0,6.0,30,-99.99,,,-99.99,meteohub,2013-04-08 20:58:00,
2013-04-08 16:03:00,44.4,32.5,28.83,North,357,6.0,7.0,30,-99.99,,,-99.99,meteohub,2013-04-08 21:03:00,
2013-04-08 16:08:00,44.4,32.7,28.83,North,353,5.0,7.0,30,-99.99,,,-99.99,meteohub,2013-04-08 21:08:00,
2013-04-08 16:13:00,44.4,32.7,28.83,NE,50,4.0,8.0,30,-99.99,,,-99.99,meteohub,2013-04-08 21:13:00,
2013-04-08 16:18:00,44.6,32.7,28.83,NNE,21,5.0,8.0,30,-99.99,,,-99.99,meteohub,2013-04-08 21:18:00,
2013-04-08 16:24:00,44.4,32.7,28.83,NE,38,5.0,8.0,30,-99.99,,,-99.99,meteohub,2013-04-08 21:24:00,
2013-04-08 16:29:00,44.2,32.9,28.83,NE,37,3.0,6.0,30,-99.99,,,-99.99,meteohub,2013-04-08 21:29:00,
2013-04-08 16:35:00,44.2,32.9,28.83,NNE,27,6.0,8.0,30,-99.99,,,-99.99,meteohub,2013-04-08 21:35:00,
2013-04-08 16:40:00,44.2,32.9,28.83,North,7,4.0,8.0,30,-99.99,,,-99.99,meteohub,2013-04-08 21:40:00,
2013-04-08 16:45:00,44.6,32.9,28.83,North,5,5.0,7.0,30,-99.99,,,-99.99,meteohub,2013-04-08 21:45:00,
2013-04-08 16:50:00,44.6,32.9,28.86,NNE,24,6.0,7.0,30,-99.99,,,-99.99,meteohub,2013-04-08 21:50:00,
2013-04-08 16:55:00,44.6,32.9,28.86,NNE,33,4.0,8.0,30,-99.99,,,-99.99,meteohub,2013-04-08 21:55:00,
2013-04-08 17:00:00,44.2,33.1,28.86,NNW,339,3.0,8.0,30,-99.99,,,-99.99,meteohub,2013-04-08 22:00:00,
2013-04-08 17:05:00,44.2,32.9,28.86,NNE,16,6.0,8.0,30,-99.99,,,-99.99,meteohub,2013-04-08 22:05:00,
2013-04-08 17:10:00,44.1,32.9,28.86,NNE,17,2.0,7.0,30,-99.99,,,-99.99,meteohub,2013-04-08 22:10:00,
2013-04-08 17:15:00,43.9,33.1,28.86,NNW,346,2.0,6.0,30,-99.99,,,-99.99,meteohub,2013-04-08 22:15:00,
2013-04-08 17:21:00,43.7,32.9,28.86,NNW,346,3.0,6.0,30,-99.99,,,-99.99,meteohub,2013-04-08 22:21:00,
2013-04-08 17:26:00,43.5,32.9,28.86,NE,39,5.0,8.0,30,-99.99,,,-99.99,meteohub,2013-04-08 22:26:00,
2013-04-08 17:32:00,43.3,33.1,28.86,NE,34,4.0,8.0,30,-99.99,,,-99.99,meteohub,2013-04-08 22:32:00,
2013-04-08 17:37:00,43.3,33.1,28.89,North,0,8.0,8.0,30,-99.99,,,-99.99,meteohub,2013-04-08 22:37:00,
2013-04-08 17:42:00,43.2,33.1,28.89,NE,46,3.0,8.0,30,-99.99,,,-99.99,meteohub,2013-04-08 22:42:00,
2013-04-08 17:47:00,43.2,33.1,28.89,North,9,4.0,8.0,30,-99.99,,,-99.99,meteohub,2013-04-08 22:47:00,
2013-04-08 17:52:00,43.2,32.9,28.89,North,357,0.0,8.0,30,-99.99,,,-99.99,meteohub,2013-04-08 22:52:00,
2013-04-08 17:58:00,43.2,32.9,28.89,NNE,32,0.0,6.0,30,-99.99,,,-99.99,meteohub,2013-04-08 22:58:00,
2013-04-08 18:03:00,43.2,33.1,28.89,NNW,340,5.0,8.0,30,-99.99,,,-99.99,meteohub,2013-04-08 23:03:00,
2013-04-08 18:09:00,43.2,32.9,28.92,NNE,16,0.0,8.0,30,-99.99,,,-99.99,meteohub,2013-04-08 23:09:00,
2013-04-08 18:14:00,43.2,32.9,28.92,NNW,339,4.0,8.0,30,-99.99,,,-99.99,meteohub,2013-04-08 23:14:00,
2013-04-08 18:19:00,43.2,32.9,28.92,North,357,0.0,8.0,30,-99.99,,,-99.99,meteohub,2013-04-08 23:19:00,
2013-04-08 18:24:00,43.2,33.8,28.92,NNW,334,4.0,8.0,31,-99.99,,,-99.99,meteohub,2013-04-08 23:24:00,
2013-04-08 18:30:00,43.0,33.8,28.92,North,353,7.0,8.0,31,-99.99,,,-99.99,meteohub,2013-04-08 23:30:00,
2013-04-08 18:35:00,42.8,33.1,28.92,NNW,348,9.0,9.0,30,-99.99,,,-99.99,meteohub,2013-04-08 23:35:00,
2013-04-08 18:40:00,42.4,32.9,28.92,NNE,23,8.0,10.0,30,-99.99,,,-99.99,meteohub,2013-04-08 23:40:00,
2013-04-08 18:45:00,42.4,32.9,28.92,NNW,342,5.0,10.0,30,-99.99,,,-99.99,meteohub,2013-04-08 23:45:00,
2013-04-08 18:51:00,42.3,32.9,28.92,North,10,4.0,10.0,30,-99.99,,,-99.99,meteohub,2013-04-08 23:51:00,
2013-04-08 18:56:00,42.1,32.9,28.92,NNE,17,6.0,8.0,30,-99.99,,,-99.99,meteohub,2013-04-08 23:56:00,
2013-04-08 19:02:00,41.7,33.8,28.92,NNE,29,4.0,8.0,31,-99.99,,,-99.99,meteohub,2013-04-09 00:02:00,
2013-04-08 19:07:00,41.5,32.9,28.95,NNE,14,4.0,9.0,30,-99.99,,,-99.99,meteohub,2013-04-09 00:07:00,
2013-04-08 19:12:00,41.5,32.9,28.95,North,0,6.0,9.0,30,-99.99,,,-99.99,meteohub,2013-04-09 00:12:00,
2013-04-08 19:17:00,41.4,32.9,28.95,North,349,2.0,6.0,30,-99.99,,,-99.99,meteohub,2013-04-09 00:17:00,
2013-04-08 19:22:00,41.4,32.9,28.95,NNE,14,6.0,8.0,30,-99.99,,,-99.99,meteohub,2013-04-09 00:22:00,
2013-04-08 19:27:00,41.4,32.9,28.95,NNE,30,3.0,8.0,30,-99.99,,,-99.99,meteohub,2013-04-09 00:27:00,
2013-04-08 19:32:00,41.4,32.9,28.95,NNE,26,4.0,8.0,30,-99.99,,,-99.99,meteohub,2013-04-09 00:32:00,
2013-04-08 19:37:00,41.4,32.9,28.95,NNW,348,8.0,8.0,30,-99.99,,,-99.99,meteohub,2013-04-09 00:37:00,
2013-04-08 19:42:00,41.4,32.9,28.95,North,8,5.0,10.0,30,-99.99,,,-99.99,meteohub,2013-04-09 00:42:00,
2013-04-08 19:47:00,41.4,32.9,28.95,NNE,33,4.0,10.0,30,-99.99,,,-99.99,meteohub,2013-04-09 00:47:00,
2013-04-08 19:53:00,41.4,32.9,28.95,North,357,5.0,10.0,30,-99.99,,,-99.99,meteohub,2013-04-09 00:53:00,
2013-04-08 19:58:00,41.4,32.9,28.95,NNE,25,3.0,9.0,30,-99.99,,,-99.99,meteohub,2013-04-09 00:58:00,
2013-04-08 20:03:00,41.2,32.9,28.95,North,357,4.0,8.0,30,-99.99,,,-99.99,meteohub,2013-04-09 01:03:00,
2013-04-08 20:09:00,41.2,32.7,28.98,North,0,5.0,11.0,30,-99.99,,,-99.99,meteohub,2013-04-09 01:09:00,
2013-04-08 20:15:00,41.2,32.7,28.98,North,3,8.0,11.0,30,-99.99,,,-99.99,meteohub,2013-04-09 01:15:00,
2013-04-08 20:20:00,41.0,32.7,28.98,North,357,3.0,9.0,30,-99.99,,,-99.99,meteohub,2013-04-09 01:20:00,
2013-04-08 20:25:00,40.8,32.7,28.98,North,353,0.0,10.0,30,-99.99,,,-99.99,meteohub,2013-04-09 01:25:00,
2013-04-08 20:30:00,40.8,32.7,28.98,NNE,28,3.0,10.0,30,-99.99,,,-99.99,meteohub,2013-04-09 01:30:00,
2013-04-08 20:36:00,40.6,32.7,28.98,NE,35,3.0,9.0,30,-99.99,,,-99.99,meteohub,2013-04-09 01:36:00,
2013-04-08 20:42:00,40.5,32.7,28.98,NNE,18,5.0,8.0,30,-99.99,,,-99.99,meteohub,2013-04-09 01:42:00,
2013-04-08 20:47:00,40.5,32.5,28.98,NE,45,3.0,8.0,30,-99.99,,,-99.99,meteohub,2013-04-09 01:47:00,
2013-04-08 20:52:00,40.5,33.4,28.98,ENE,61,3.0,8.0,31,-99.99,,,-99.99,meteohub,2013-04-09 01:52:00,
2013-04-08 20:57:00,40.3,35.1,28.98,NNE,16,4.0,6.0,33,-99.99,,,-99.99,meteohub,2013-04-09 01:57:00,
2013-04-08 21:02:00,40.3,34.3,28.98,North,5,4.0,6.0,32,-99.99,,,-99.99,meteohub,2013-04-09 02:02:00,
2013-04-08 21:08:00,40.3,34.3,28.98,ENE,63,5.0,8.0,32,-99.99,,,-99.99,meteohub,2013-04-09 02:08:00,
2013-04-08 21:13:00,40.3,34.3,28.98,NNE,27,3.0,8.0,32,-99.99,,,-99.99,meteohub,2013-04-09 02:13:00,
2013-04-08 21:18:00,40.3,34.3,28.98,NNE,31,7.0,8.0,32,-99.99,,,-99.99,meteohub,2013-04-09 02:18:00,
2013-04-08 21:23:00,40.3,34.3,28.98,NNE,17,9.0,9.0,32,-99.99,,,-99.99,meteohub,2013-04-09 02:23:00,
2013-04-08 21:29:00,40.3,34.3,28.98,North,4,6.0,9.0,32,-99.99,,,-99.99,meteohub,2013-04-09 02:29:00,
2013-04-08 21:34:00,40.1,34.3,28.98,North,0,5.0,11.0,32,-99.99,,,-99.99,meteohub,2013-04-09 02:34:00,
2013-04-08 21:39:00,40.1,34.3,28.98,NNE,30,6.0,11.0,32,-99.99,,,-99.99,meteohub,2013-04-09 02:39:00,
2013-04-08 21:45:00,40.1,34.3,28.98,NNE,12,5.0,11.0,32,-99.99,,,-99.99,meteohub,2013-04-09 02:45:00,
2013-04-08 21:50:00,39.9,34.3,28.98,North,357,4.0,11.0,32,-99.99,,,-99.99,meteohub,2013-04-09 02:50:00,
2013-04-08 21:55:00,39.9,34.2,28.98,NE,51,8.0,8.0,32,-99.99,,,-99.99,meteohub,2013-04-09 02:55:00,
2013-04-08 22:00:00,39.9,34.3,28.98,North,10,8.0,8.0,32,-99.99,,,-99.99,meteohub,2013-04-09 03:00:00,
2013-04-08 22:06:00,39.7,34.3,28.98,NNE,25,5.0,10.0,32,-99.99,,,-99.99,meteohub,2013-04-09 03:06:00,
2013-04-08 22:11:00,39.7,34.2,28.98,NE,42,5.0,10.0,32,-99.99,,,-99.99,meteohub,2013-04-09 03:11:00,
2013-04-08 22:16:00,39.7,34.2,28.98,NE,39,4.0,10.0,32,-99.99,,,-99.99,meteohub,2013-04-09 03:16:00,
2013-04-08 22:22:00,39.6,34.2,28.98,NE,54,8.0,8.0,32,-99.99,,,-99.99,meteohub,2013-04-09 03:22:00,
2013-04-08 22:27:00,39.6,34.2,28.98,NE,55,8.0,10.0,32,-99.99,,,-99.99,meteohub,2013-04-09 03:27:00,
2013-04-08 22:32:00,39.6,35.1,28.98,NE,38,3.0,10.0,33,-99.99,,,-99.99,meteohub,2013-04-09 03:32:00,
2013-04-08 22:37:00,39.4,35.1,29.01,NE,49,3.0,10.0,33,-99.99,,,-99.99,meteohub,2013-04-09 03:37:00,
2013-04-08 22:43:00,39.4,35.2,29.01,NNE,20,2.0,8.0,33,-99.99,,,-99.99,meteohub,2013-04-09 03:43:00,
2013-04-08 22:48:00,39.4,35.2,29.01,North,4,3.0,6.0,33,-99.99,,,-99.99,meteohub,2013-04-09 03:48:00,
2013-04-08 22:53:00,39.4,35.2,29.01,North,0,4.0,5.0,33,-99.99,,,-99.99,meteohub,2013-04-09 03:53:00,
2013-04-08 22:58:00,39.6,35.4,29.01,NE,34,0.0,5.0,33,-99.99,,,-99.99,meteohub,2013-04-09 03:58:00,
2013-04-08 23:00:00,39.6,35.4,29.01,North,353,3.0,5.0,33,-99.99,,,-99.99,meteohub,2013-04-09 04:00:00,
2013-04-08 23:01:00,39.6,35.4,29.01,NNE,19,2.0,6.0,33,-99.99,,,-99.99,meteohub,2013-04-09 04:01:00,
2013-04-08 23:05:00,39.6,35.6,29.04,North,350,3.0,6.0,33,-99.99,,,-99.99,meteohub,2013-04-09 04:05:00,
2013-04-08 23:11:00,39.6,35.6,29.04,North,7,2.0,5.0,33,-99.99,,,-99.99,meteohub,2013-04-09 04:11:00,
2013-04-08 23:17:00,39.6,35.6,29.04,North,5,2.0,5.0,33,-99.99,,,-99.99,meteohub,2013-04-09 04:17:00,
2013-04-08 23:22:00,39.6,35.6,29.04,North,0,2.0,5.0,33,-99.99,,,-99.99,meteohub,2013-04-09 04:22:00,
2013-04-08 23:27:00,39.6,35.6,29.04,NNW,346,4.0,5.0,33,-99.99,,,-99.99,meteohub,2013-04-09 04:27:00,
2013-04-08 23:32:00,39.6,35.6,29.04,NNW,339,0.0,5.0,33,-99.99,,,-99.99,meteohub,2013-04-09 04:32:00,
2013-04-08 23:37:00,39.6,35.6,29.04,NNE,18,3.0,5.0,33,-99.99,,,-99.99,meteohub,2013-04-09 04:37:00,
2013-04-08 23:42:00,39.6,35.6,29.04,NNE,27,5.0,5.0,33,-99.99,,,-99.99,meteohub,2013-04-09 04:42:00,
2013-04-08 23:47:00,39.6,35.6,29.04,NNE,24,4.0,5.0,33,-99.99,,,-99.99,meteohub,2013-04-09 04:47:00,
2013-04-08 23:52:00,39.4,35.6,29.04,NNE,17,5.0,5.0,33,-99.99,,,-99.99,meteohub,2013-04-09 04:52:00,
2013-04-08 23:57:00,39.4,35.6,29.04,NNW,344,6.0,6.0,33,-99.99,,,-99.99,meteohub,2013-04-09 04:57:00,